This demonstration page uses our WeatherBlox Daily Observations layout. Learn more.

Left ArrowRight Arrow

39.01783, -85.05884

Hourly Observations for June 26, 2022

Temp ( °F °C ) Dew Point ( °F °C ) Humidity (%) Winds ( mph kmh ) Pressure ( in mb ) Visibility ( mi km ) Precip ( " mm )
12:52 am 00:52 Cloudy 76 24.4 70 21.1 82 82 S 6 9 29.99 1016 10 16 0.00 0.00
1:52 am 01:52 Cloudy 76 24.4 71 21.7 85 85 S 8 13 29.99 1016 10 16 0.00 0.00
2:52 am 02:52 Cloudy 76 24.4 71 21.7 85 85 S 8 13 29.97 1015 10 16 0.00 0.00
3:52 am 03:52 Cloudy 75 23.9 71 21.7 88 88 SSW 6 9 29.98 1015 10 16 0.00 0.00
4:52 am 04:52 Cloudy 75 23.9 71 21.7 88 88 S 5 7 29.99 1016 9 14 0.00 0.00
5:52 am 05:52 Cloudy 73 22.8 71 21.7 94 94 S 7 11 30.00 1016 8 13 0.00 0.00
6:52 am 06:52 Cloudy 74 23.3 72 22.2 94 94 S 8 13 29.96 1015 7 11 0.00 0.00
7:52 am 07:52 Sunny 75 23.9 72 22.2 90 90 SW 3 6 30.00 1016 7 11 0.00 0.00
8:52 am 08:52 Cloudy 77 25 73 22.8 88 88 S 3 6 29.99 1016 7 11 0.00 0.00
9:52 am 09:52 Mostly Cloudy 79 26.1 71 21.7 77 77 W 6 9 30.01 1016 8 13 0.00 0.00
10:52 am 10:52 Cloudy 83 28.3 68 20 61 61 ENE 5 7 30.01 1016 10 16 0.00 0.00
11:52 am 11:52 Cloudy 83 28.3 69 20.6 63 63 WSW 5 7 30.04 1017 10 16 0.00 0.00
12:52 pm 12:52 Mostly Cloudy 83 28.3 71 21.7 67 67 SSW 8 13 30.04 1017 10 16 0.00 0.00
1:52 pm 13:52 Mostly Cloudy 83 28.3 69 20.6 63 63 WSW 9 15 30.04 1017 10 16 0.00 0.00
2:52 pm 14:52 Mostly Cloudy 84 28.9 71 21.7 65 65 W 13 20 30.03 1017 10 16 0.00 0.00
3:52 pm 15:52 Mostly Cloudy 85 29.4 71 21.7 63 63 SW 13 20 29.99 1016 10 16 0.00 0.00
4:52 pm 16:52 Mostly Cloudy 84 28.9 70 21.1 63 63 W 9 15 29.98 1015 10 16 0.00 0.00
5:52 pm 17:52 Mostly Cloudy 82 27.8 71 21.7 69 69 WSW 8 13 29.98 1015 10 16 0.00 0.00
6:52 pm 18:52 Cloudy 80 26.7 71 21.7 74 74 SW 7 11 29.97 1015 10 16 0.00 0.00
7:52 pm 19:52 Mostly Cloudy 79 26.1 72 22.2 79 79 W 9 15 29.98 1015 10 16 0.00 0.00
8:52 pm 20:52 Mostly Cloudy 77 25 72 22.2 85 85 SW 7 11 30.00 1016 10 16 0.00 0.00
9:52 pm 21:52 Mostly Cloudy 76 24.4 72 22.2 88 88 W 5 7 30.01 1016 10 16 0.00 0.00
10:52 pm 22:52 Mostly Cloudy 74 23.3 73 22.8 97 97 WNW 7 11 30.04 1017 10 16 0.02 0.51
11:52 pm 23:52 Partly Cloudy 74 23.3 70 21.1 88 88 NW 15 24 30.05 1018 10 16 0.00 0.00

Powered by AerisWeather